Regional Weather Roundup
Issued by NWS

Home | Current Version | Previous Version | Text Only | Print | Product List | Glossary On
Versions: 1 2 3 4 5 6 7 8 9 10 11 12 13 14 15 16 17 18 19 20 21 22 23 24 25 26 27 28 29 30 31 32 33 34 35 36 37 38 39 40 41 42 43 44 45 46 47 48 49 50
000
ASUS45 KABQ 311010
RWRNM
WEATHER ROUNDUP FOR NEW MEXICO
NATIONAL WEATHER SERVICE ALBUQUERQUE NM
300 AM MST SAT JAN 31 2015

NOTE: "FAIR" MEANS FEW OR NO CLOUDS BELOW 12,000 FEET AGL WITH NO
       SIGNIFICANT WEATHER OR OBSTRUCTIONS TO VISION.

      THIS PRODUCT IS RELEASED AS TWO VERSIONS.  ONE VERSION NEAR
      THE TOP OF THE HOUR CONTAINING PRELIMINARY DATA FROM ALBUQUERQUE
      AND OTHER STATIONS.  A FINAL VERSION WITH ADDITIONAL DATA IS
      ISSUED ABOUT 10 MINUTES AFTER THE HOUR.

NMZ501-503-504-510>518-311100-
NORTHWEST PLATEAU/NORTHCENTRAL MOUNTAINS

CITY           SKY/WX    TMP DP  RH WIND       PRES   REMARKS
FARMINGTON     LGT SNOW  33  32  96 E3        29.91F FOG
LOS ALAMOS     LGT SNOW  28  28 100 S8        29.96F WCI  20
SANTA FE       LGT SNOW  30  27  88 S7        29.96F FOG     WCI  23
TAOS           CLOUDY    28  27  93 CALM      29.97F
ANGEL FIRE     FLURRIES  31  29  95 CALM      29.95S

$$
NMZ402-403-502-505>509-311100-
WESTCENTRAL MOUNTAINS/SOUTHWEST MOUNTAINS

CITY           SKY/WX    TMP DP  RH WIND       PRES   REMARKS
GALLUP         LGT RAIN  33  31  92 NE3       29.90F FOG
GRANTS         LGT SNOW  32  31  98 S12       29.94F WCI  23
SILVER CITY    LGT RAIN  39  39 100 W3        29.94S

$$
NMZ407-409-411-412-311100-
SOUTHERN DESERTS

CITY           SKY/WX    TMP DP  RH WIND       PRES   REMARKS
LORDSBURG      CLOUDY    41  41 100 S6        29.89F
DEMING         CLOUDY    42  42 100 E12       29.91S
LAS CRUCES     RAIN      41  40  96 SE5       29.93F
HOLLOMAN AFB   CLOUDY    41  41 100 N2        29.92F
ALAMOGORDO     CLOUDY    41  41 100 N6        29.95F FOG
T OR C         LGT RAIN  40  40 100 CALM      29.92F FOG

$$
NMZ519>523-311100-
CENTRAL VALLEYS/CENTRAL HIGHLANDS

CITY           SKY/WX    TMP DP  RH WIND       PRES   REMARKS
ALBUQUERQUE    LGT SNOW  33  32  96 N6        29.96F FOG     WCI  28
DOUBLE EAGLE   LGT SNOW  31  30  96 N9        29.96F WCI  23
MORIARTY ARPT  FLURRIES  30  28  94 CALM      29.98F
CLINES CORNERS NOT AVBL
BELEN          DRIZZLE   34  34 100 CALM      29.95F
SOCORRO        DRIZZLE   38  38  99 CALM      29.93F

$$
NMZ524>526-539-540-311100-
SOUTHCENTRAL MOUNTAINS

CITY           SKY/WX    TMP DP  RH WIND       PRES   REMARKS
RUIDOSO        FOG       28  28 100 SE5       29.97F VSB<1/4 WCI  23

$$
NMZ527>531-311100-
NORTHEAST HIGHLANDS/NORTHEAST PLAINS

CITY           SKY/WX    TMP DP  RH WIND       PRES   REMARKS
LAS VEGAS      LGT SNOW  26  24  92 S9        29.98F FOG     WCI  17
RATON          FOG       29  28  96 SW3       29.97F VSB 1/2
CLAYTON        LGT SNOW  32  30  92 SW12      29.99F FOG     WCI  23

$$
NMZ532>537-311100-
EASTCENTRAL PLAINS

CITY           SKY/WX    TMP DP  RH WIND       PRES   REMARKS
TUCUMCARI      CLOUDY    35  34  96 CALM      30.04F
CANNON AFB     CLOUDY    34  33  99 SE8       30.03F WCI  27
CLOVIS AIRPORT CLOUDY    34  30  86 SE8       30.04F WCI  27

$$
NMZ028-029-538-311100-
SOUTHEAST PLAINS

CITY           SKY/WX    TMP DP  RH WIND       PRES   REMARKS
ROSWELL        CLOUDY    38  36  92 CALM      30.01F FOG
ARTESIA        CLOUDY    37  37 100 NE5       30.02F FOG     WCI  34
CARLSBAD       LGT RAIN  40  38  93 CALM      30.01F FOG
HOBBS          LGT RAIN  37  37 100 E13       30.03F WCI  29


$$


USA.gov is the U.S. government's official web portal to all federal, state and local government web resources and services.